Location: Chakepay
(13.3931°S, 72.1925°W)
Time: 19:11:26
(UTC+00:00)

SWIFT - Pass Details

Date: 15 November 2019
Orbit: 545 x 561 km, 20.6° (Epoch: 13 December)

Event Time Altitude Azimuth Distance (km) Brightness Sun altitude
Rises 01:05:23 0° 254° (WSW) 2,701 6.9 -29.7°
Reaches altitude 10° 01:07:53 10° 243° (WSW) 1,810 5.9 -30.2°
Enters shadow 01:10:16 25° 214° (SW) 1,135 4.4 -30.7°
